Date String (YYYY-MM-DD hh:mm:ss) UTC,Instrument flags,Ambient pressure (hPa),Sample flow (lpm),Bypass flow (lpm),Sample temperature (°C),Ambient temperature (°C),ASC tube jacket temperature (°C),LED temperature (°C),Box temperature (°C),Sample RH (%),Span deviation,Mass concentration (μg/m³),Mass concentration (μg/m³),Mass concentration (μg/m³)
DateTimeUTC,F1_M11,P_M11,Q1_M11,Q2_M11,T1_M11,T2_M11,T3_M11,T4_M11,T5_M11,U1_M11,ZSPAN_M11,X0_M11,X2_M11,X1_M11
2022-06-29 11:00:00,,0829.5,5.00,0.00,29.8,28.9,00.0,38.5,31.7,15.8,0000.0,0012.38,0004.78,0004.03
2022-06-29 11:01:00,,0829.5,5.01,0.00,29.8,28.9,00.0,38.5,31.8,15.9,0000.0,0013.21,0004.81,0004.05
2022-06-29 11:02:00,,0829.5,5.00,0.00,29.8,28.6,00.0,38.5,31.7,15.8,0000.0,0012.94,0004.87,0004.05
2022-06-29 11:03:00,,0829.5,4.99,0.00,29.8,27.7,00.0,38.5,31.4,15.9,0000.0,0012.95,0004.89,0004.07
2022-06-29 11:04:00,,0829.4,4.98,0.00,29.7,27.5,00.0,38.4,31.3,15.9,0000.0,0012.88,0004.88,0004.08
2022-06-29 11:05:00,,0829.3,5.00,0.00,29.6,27.4,00.0,38.4,31.3,16.0,0000.0,0012.42,0004.86,0004.09
2022-06-29 11:06:00,,0829.4,5.01,0.00,29.6,27.5,00.0,38.4,31.3,16.0,0000.0,0011.20,0004.87,0004.11
2022-06-29 11:07:00,,0829.6,5.01,0.00,29.6,27.6,00.0,38.4,31.3,16.1,0000.0,0011.15,0004.89,0004.12
2022-06-29 11:08:00,,0829.5,5.00,0.00,29.5,27.7,00.0,38.4,31.3,16.2,0000.0,0011.44,0004.88,0004.12
2022-06-29 11:09:00,,0829.5,5.00,0.00,29.5,27.9,00.0,38.4,31.3,16.2,0000.0,0011.74,0004.89,0004.13
2022-06-29 11:10:00,,0829.5,5.00,0.00,29.5,28.0,00.0,38.4,31.4,16.1,0000.0,0011.75,0004.86,0004.15
2022-06-29 11:11:00,,0829.5,4.99,0.00,29.5,28.1,00.0,38.4,31.4,16.1,0000.0,0012.38,0004.85,0004.15
2022-06-29 11:12:00,,0829.5,5.00,0.00,29.5,28.2,00.0,38.4,31.4,16.0,0000.0,0011.87,0004.84,0004.16
2022-06-29 11:13:00,,0829.5,5.00,0.00,29.6,28.3,00.0,38.4,31.4,16.0,0000.0,0011.87,0004.86,0004.17
2022-06-29 11:14:00,,0829.5,5.00,0.00,29.6,28.4,00.0,38.4,31.5,16.1,0000.0,0012.02,0004.85,0004.17
2022-06-29 11:15:00,,0829.5,4.99,0.00,29.6,28.5,00.0,38.4,31.5,16.1,0000.0,0012.20,0004.87,0004.16
2022-06-29 11:16:00,,0829.5,5.00,0.00,29.6,28.5,00.0,38.4,31.5,16.1,0000.0,0012.37,0004.86,0004.15
2022-06-29 11:17:00,,0829.5,5.00,0.00,29.6,28.6,00.0,38.4,31.6,16.1,0000.0,0012.96,0004.83,0004.16
2022-06-29 11:18:00,,0829.5,5.00,0.00,29.7,28.6,00.0,38.4,31.6,16.1,0000.0,0013.76,0004.83,0004.17
2022-06-29 11:19:00,,0829.5,5.01,0.00,29.7,28.7,00.0,38.4,31.6,16.2,0000.0,0013.22,0004.84,0004.18
2022-06-29 11:20:00,,0829.5,5.00,0.00,29.7,28.7,00.0,38.4,31.6,16.1,0000.0,0012.45,0004.83,0004.18
2022-06-29 11:21:00,,0829.5,4.99,0.00,29.7,28.8,00.0,38.5,31.7,16.1,0000.0,0012.44,0004.84,0004.17
2022-06-29 11:22:00,,0829.5,5.01,0.00,29.7,28.8,00.0,38.5,31.7,16.0,0000.0,0011.13,0004.82,0004.18
2022-06-29 11:23:00,,0829.5,5.00,0.00,29.8,28.8,00.0,38.5,31.7,15.9,0000.0,0010.70,0004.81,0004.19
2022-06-29 11:24:00,,0829.6,4.99,0.00,29.8,28.9,00.0,38.5,31.7,15.8,0000.0,0010.47,0004.76,0004.17
2022-06-29 11:25:00,,0829.5,5.01,0.00,29.8,28.9,00.0,38.5,31.8,15.7,0000.0,0010.39,0004.79,0004.18
2022-06-29 11:26:00,,0829.5,5.00,0.00,29.8,28.6,00.0,38.5,31.7,16.0,0000.0,0010.18,0004.74,0004.19
2022-06-29 11:27:00,,0829.5,4.99,0.00,29.7,27.7,00.0,38.5,31.4,15.9,0000.0,0010.12,0004.75,0004.19
2022-06-29 11:28:00,,0829.5,4.99,0.00,29.7,27.4,00.0,38.4,31.3,15.9,0000.0,0009.39,0004.78,0004.19
2022-06-29 11:29:00,,0829.5,5.01,0.00,29.6,27.4,00.0,38.4,31.3,15.9,0000.0,0008.37,0004.80,0004.19
2022-06-29 11:30:00,,0829.5,5.01,0.00,29.6,27.5,00.0,38.4,31.3,15.9,0000.0,0008.62,0004.84,0004.19
2022-06-29 11:31:00,,0829.5,5.00,0.00,29.5,27.6,00.0,38.4,31.3,15.9,0000.0,0009.12,0004.88,0004.20
2022-06-29 11:32:00,,0829.5,4.99,0.00,29.5,27.7,00.0,38.4,31.3,16.1,0000.0,0009.37,0004.89,0004.20
2022-06-29 11:33:00,,0829.5,5.01,0.00,29.5,27.9,00.0,38.4,31.3,16.0,0000.0,0009.51,0004.92,0004.19
2022-06-29 11:34:00,,0829.5,5.01,0.00,29.5,28.0,00.0,38.4,31.4,15.9,0000.0,0009.55,0004.91,0004.18
2022-06-29 11:35:00,,0829.6,4.99,0.00,29.5,28.1,00.0,38.4,31.4,15.7,0000.0,0009.57,0004.90,0004.17
2022-06-29 11:36:00,,0829.5,5.00,0.00,29.5,28.2,00.0,38.4,31.4,15.5,0000.0,0009.48,0004.88,0004.15
2022-06-29 11:37:00,,0829.5,5.00,0.00,29.5,28.3,00.0,38.4,31.4,15.4,0000.0,0009.45,0004.86,0004.12
2022-06-29 11:38:00,,0829.5,4.99,0.00,29.6,28.4,00.0,38.4,31.4,15.4,0000.0,0009.76,0004.83,0004.09
2022-06-29 11:39:00,,0829.5,4.98,0.00,29.6,28.4,00.0,38.4,31.5,15.5,0000.0,0010.29,0004.77,0004.05
2022-06-29 11:40:00,,0829.5,5.00,0.00,29.6,28.5,00.0,38.4,31.5,15.6,0000.0,0010.42,0004.75,0004.02
2022-06-29 11:41:00,,0829.5,5.00,0.00,29.6,28.6,00.0,38.4,31.5,15.6,0000.0,0010.18,0004.65,0003.99
2022-06-29 11:42:00,,0829.5,5.00,0.00,29.6,28.6,00.0,38.4,31.5,15.6,0000.0,0010.17,0004.58,0003.96
2022-06-29 11:43:00,,0829.5,4.99,0.00,29.7,28.7,00.0,38.4,31.6,15.6,0000.0,0009.88,0004.53,0003.94
2022-06-29 11:44:00,,0829.5,5.00,0.00,29.7,28.7,00.0,38.4,31.6,15.6,0000.0,0009.87,0004.48,0003.92
2022-06-29 11:45:00,,0829.5,5.00,0.00,29.7,28.8,00.0,38.4,31.6,15.6,0000.0,0009.72,0004.47,0003.92
2022-06-29 11:46:00,,0829.5,5.00,0.00,29.7,28.8,00.0,38.5,31.7,15.6,0000.0,0009.70,0004.46,0003.92
2022-06-29 11:47:00,,0829.5,5.00,0.00,29.7,28.8,00.0,38.5,31.7,15.6,0000.0,0009.78,0004.47,0003.92
2022-06-29 11:48:00,,0829.5,5.00,0.00,29.8,28.9,00.0,38.5,31.7,15.6,0000.0,0009.88,0004.49,0003.91
2022-06-29 11:49:00,,0829.5,5.00,0.00,29.8,28.9,00.0,38.5,31.8,15.8,0000.0,0009.76,0004.52,0003.91
2022-06-29 11:50:00,,0829.5,5.00,0.00,29.8,28.9,00.0,38.5,31.7,15.6,0000.0,0008.93,0004.52,0003.91
2022-06-29 11:51:00,,0829.5,5.00,0.00,29.8,28.7,00.0,38.5,31.7,15.6,0000.0,0008.64,0004.48,0003.89
2022-06-29 11:52:00,,0829.6,5.00,0.00,29.8,27.8,00.0,38.5,31.5,15.7,0000.0,0009.09,0004.50,0003.88
2022-06-29 11:53:00,,0829.5,5.01,0.00,29.7,27.5,00.0,38.4,31.4,15.6,0000.0,0009.69,0004.55,0003.87
2022-06-29 11:54:00,,0829.5,5.00,0.00,29.6,27.5,00.0,38.4,31.3,15.6,0000.0,0009.59,0004.57,0003.85
2022-06-29 11:55:00,,0829.5,5.01,0.00,29.6,27.5,00.0,38.4,31.3,15.6,0000.0,0009.29,0004.53,0003.83
2022-06-29 11:56:00,,0829.5,5.00,0.00,29.6,27.6,00.0,38.4,31.3,15.5,0000.0,0009.31,0004.49,0003.80
2022-06-29 11:57:00,,0829.6,5.00,0.00,29.5,27.8,00.0,38.4,31.3,15.8,0000.0,0009.25,0004.44,0003.77
2022-06-29 11:58:00,,0829.5,5.01,0.00,29.5,27.9,00.0,38.4,31.3,15.9,0000.0,0009.67,0004.40,0003.74
2022-06-29 11:59:00,,0829.5,5.00,0.00,29.5,28.0,00.0,38.4,31.4,15.7,0000.0,0009.96,0004.34,0003.73
